Location: Newark
(35.2672°N, 80.7344°W)
Time: 11:34:32
(UTC+00:00)

Vanguard 2 Rocket - Pass Details

Date: 23 January 2020
Orbit: 553 x 3327 km, 32.9° (Epoch: 23 February)

Event Time Altitude Azimuth Distance (km) Brightness Sun altitude
Rises 09:15:28 0° 214° (SW) 2,706 - -39.2°
Reaches altitude 10° 09:18:01 10° 195° (SSW) 1,862 - -38.7°
Maximum altitude 09:20:59 19° 147° (SSE) 1,488 - -38.1°
Exits shadow 09:22:46 16° 119° (ESE) 1,764 8.9 -37.7°
Drops below altitude 10° 09:24:33 10° 102° (ESE) 2,288 9.7 -37.3°
Sets 09:28:09 0° 85° (E) 3,589 10.9 -36.6°
